• In Belarus
  • List of Countries
  • For 7 days
  • Water Temperature
  • Weather Map
  • Weather Widgets
  • user-avatar
    Login

    Hourly Weather La Massana

    Today, 15 November, Friday

    Time Temperature Precipitation Wind Pressure Humidity
    00:00 -9°C° 0 mm 1 mps 593 mmHg 78%
    01:00 -9°C° 0 mm 1 mps 593 mmHg 77%
    02:00 -8°C° 0 mm 1 mps 593 mmHg 75%
    03:00 -8°C° 0 mm 1 mps 593 mmHg 73%
    04:00 -8°C° 0 mm 1 mps 593 mmHg 74%
    05:00 -8°C° 0 mm 1 mps 593 mmHg 74%
    06:00 -9°C° 0 mm 1 mps 593 mmHg 74%
    07:00 -7°C° 0 mm 1 mps 594 mmHg 75%
    08:00 -6°C° 0 mm 1 mps 595 mmHg 75%
    09:00 -3°C° 0 mm 1 mps 596 mmHg 76%
    10:00 -2°C° 0 mm 1 mps 596 mmHg 75%
    11:00 -1°C° 0 mm 1 mps 596 mmHg 74%
    12:00 -2°C° 0 mm 2 mps 596 mmHg 73%
    13:00 -1°C° 0.1 mm 1 mps 596 mmHg 76%
    14:00 -1°C° 0.1 mm 1 mps 596 mmHg 80%
    15:00 -2°C° 0.1 mm 1 mps 596 mmHg 83%
    16:00 -3°C° 0.4 mm 1 mps 595 mmHg 87%
    17:00 -4°C° 0.4 mm 1 mps 595 mmHg 91%
    18:00 -6°C° 0.4 mm 1 mps 595 mmHg 95%
    19:00 -7°C° 0.2 mm 1 mps 595 mmHg 94%
    20:00 -8°C° 0.2 mm 2 mps 596 mmHg 93%
    21:00 -8°C° 0.2 mm 2 mps 596 mmHg 92%
    22:00 -9°C° 0 mm 2 mps 596 mmHg 87%
    23:00 -9°C° 0 mm 2 mps 596 mmHg 83%

    Tomorrow, 16 November, Saturday

    Time Temperature Precipitation Wind Pressure Humidity
    00:00 -9°C° 0 mm 1 mps 596 mmHg 79%
    01:00 -10°C° 0 mm 2 mps 597 mmHg 79%
    02:00 -10°C° 0 mm 2 mps 597 mmHg 79%
    03:00 -10°C° 0 mm 2 mps 597 mmHg 79%
    04:00 -12°C° 0 mm 2 mps 597 mmHg 79%
    05:00 -12°C° 0 mm 2 mps 598 mmHg 79%
    06:00 -12°C° 0 mm 2 mps 598 mmHg 79%
    07:00 -8°C° 0 mm 1 mps 599 mmHg 74%
    08:00 -6°C° 0 mm 1 mps 601 mmHg 70%
    09:00 -4°C° 0 mm 0 mps 602 mmHg 65%
    10:00 -2°C° 0 mm 1 mps 602 mmHg 64%
    11:00 -1°C° 0 mm 1 mps 603 mmHg 63%
    12:00 -2°C° 0 mm 2 mps 603 mmHg 62%
    13:00 -2°C° 0 mm 2 mps 603 mmHg 65%
    14:00 -3°C° 0 mm 2 mps 602 mmHg 68%
    15:00 -3°C° 0 mm 2 mps 602 mmHg 72%
    16:00 -5°C° 0 mm 2 mps 601 mmHg 76%
    17:00 -6°C° 0 mm 2 mps 601 mmHg 79%
    18:00 -8°C° 0 mm 2 mps 600 mmHg 83%
    19:00 -7°C° 0.2 mm 2 mps 600 mmHg 85%
    20:00 -7°C° 0.2 mm 2 mps 600 mmHg 86%
    21:00 -7°C° 0.2 mm 2 mps 601 mmHg 87%
    22:00 -7°C° 0.4 mm 2 mps 600 mmHg 89%
    23:00 -7°C° 0.4 mm 2 mps 600 mmHg 90%

    Day after tomorrow, 17 November, Sunday

    Time Temperature Precipitation Wind Pressure Humidity
    00:00 -7°C° 0.4 mm 2 mps 600 mmHg 92%
    01:00 -7°C° 0 mm 2 mps 599 mmHg 91%
    02:00 -7°C° 0 mm 2 mps 599 mmHg 90%
    03:00 -8°C° 0 mm 2 mps 599 mmHg 90%
    04:00 -6°C° 0.4 mm 1 mps 599 mmHg 90%
    05:00 -6°C° 0.4 mm 1 mps 599 mmHg 90%
    06:00 -4°C° 0.4 mm 1 mps 599 mmHg 90%
    07:00 -3°C° 0.5 mm 1 mps 600 mmHg 88%
    08:00 -2°C° 0.5 mm 1 mps 600 mmHg 86%
    09:00 -1°C° 0.5 mm 1 mps 601 mmHg 84%
    10:00 -1°C° 0.2 mm 1 mps 601 mmHg 82%
    11:00 0°C° 0.2 mm 1 mps 601 mmHg 80%
    12:00 +1°C° 0.2 mm 1 mps 601 mmHg 78%
    13:00 0°C° 0 mm 1 mps 601 mmHg 79%
    14:00 0°C° 0 mm 1 mps 601 mmHg 81%
    15:00 0°C° 0 mm 1 mps 601 mmHg 82%
    16:00 -1°C° 0 mm 1 mps 600 mmHg 84%
    17:00 -3°C° 0 mm 1 mps 600 mmHg 87%
    18:00 -6°C° 0 mm 1 mps 599 mmHg 90%
    19:00 -6°C° 0 mm 1 mps 599 mmHg 88%
    20:00 -4°C° 0 mm 1 mps 600 mmHg 87%
    21:00 -4°C° 0 mm 1 mps 600 mmHg 86%
    22:00 -4°C° 0 mm 1 mps 600 mmHg 87%
    23:00 -4°C° 0 mm 1 mps 600 mmHg 89%

    18 November, Monday

    Time Temperature Precipitation Wind Pressure Humidity
    00:00 -4°C° 0 mm 1 mps 600 mmHg 90%
    01:00 -4°C° 0 mm 1 mps 600 mmHg 91%
    02:00 -4°C° 0 mm 1 mps 600 mmHg 91%
    03:00 -6°C° 0 mm 1 mps 600 mmHg 92%
    04:00 -7°C° 0 mm 2 mps 600 mmHg 92%
    05:00 -7°C° 0 mm 2 mps 601 mmHg 92%
    06:00 -7°C° 0 mm 2 mps 601 mmHg 92%
    07:00 -6°C° 0.1 mm 2 mps 602 mmHg 90%
    08:00 -5°C° 0.1 mm 2 mps 603 mmHg 87%
    09:00 -1°C° 0.1 mm 1 mps 604 mmHg 85%
    10:00 -1°C° 0 mm 1 mps 605 mmHg 82%
    11:00 0°C° 0 mm 1 mps 605 mmHg 80%
    12:00 0°C° 0 mm 1 mps 605 mmHg 77%
    13:00 0°C° 0 mm 1 mps 605 mmHg 79%
    14:00 0°C° 0 mm 1 mps 605 mmHg 81%
    15:00 -1°C° 0 mm 1 mps 605 mmHg 83%
    16:00 -2°C° 0 mm 1 mps 604 mmHg 87%
    17:00 -4°C° 0 mm 1 mps 604 mmHg 90%
    18:00 -7°C° 0 mm 1 mps 604 mmHg 94%
    19:00 -7°C° 0 mm 1 mps 604 mmHg 91%
    20:00 -7°C° 0 mm 1 mps 604 mmHg 89%
    21:00 -7°C° 0 mm 1 mps 604 mmHg 86%
    22:00 -7°C° 0 mm 1 mps 604 mmHg 81%
    23:00 -8°C° 0 mm 1 mps 604 mmHg 76%

    19 November, Tuesday

    Time Temperature Precipitation Wind Pressure Humidity
    00:00 -8°C° 0 mm 1 mps 604 mmHg 71%
    01:00 -8°C° 0 mm 1 mps 604 mmHg 69%
    02:00 -8°C° 0 mm 1 mps 604 mmHg 67%
    03:00 -8°C° 0 mm 1 mps 604 mmHg 64%
    04:00 -8°C° 0 mm 1 mps 604 mmHg 66%
    05:00 -8°C° 0 mm 1 mps 604 mmHg 67%
    06:00 -7°C° 0 mm 1 mps 604 mmHg 68%
    07:00 -6°C° 0 mm 1 mps 605 mmHg 69%
    08:00 -3°C° 0 mm 1 mps 606 mmHg 70%
    09:00 -1°C° 0 mm 1 mps 606 mmHg 71%
    10:00 0°C° 0 mm 1 mps 606 mmHg 71%
    11:00 +1°C° 0 mm 1 mps 607 mmHg 71%
    12:00 +2°C° 0 mm 1 mps 607 mmHg 71%
    13:00 +1°C° 0 mm 1 mps 606 mmHg 73%
    14:00 -2°C° 0 mm 2 mps 605 mmHg 76%
    15:00 -2°C° 0 mm 2 mps 605 mmHg 78%
    16:00 -4°C° 0 mm 2 mps 604 mmHg 80%
    17:00 -5°C° 0 mm 2 mps 603 mmHg 83%
    18:00 -6°C° 0 mm 2 mps 603 mmHg 85%
    19:00 -7°C° 0 mm 2 mps 603 mmHg 86%
    20:00 -7°C° 0 mm 2 mps 602 mmHg 86%
    21:00 -7°C° 0 mm 2 mps 602 mmHg 86%
    22:00 -7°C° 0 mm 2 mps 602 mmHg 87%
    23:00 -7°C° 0 mm 2 mps 602 mmHg 89%

    20 November, Wednesday

    Time Temperature Precipitation Wind Pressure Humidity
    00:00 -6°C° 0 mm 2 mps 602 mmHg 90%
    01:00 -6°C° 0 mm 2 mps 601 mmHg 90%
    02:00 -6°C° 0 mm 2 mps 601 mmHg 91%
    03:00 -6°C° 0 mm 2 mps 601 mmHg 91%
    04:00 -5°C° 0 mm 2 mps 601 mmHg 91%
    05:00 -5°C° 0 mm 2 mps 601 mmHg 91%
    06:00 -5°C° 0 mm 2 mps 601 mmHg 92%
    07:00 -4°C° 0.1 mm 2 mps 602 mmHg 92%
    08:00 -2°C° 0.1 mm 2 mps 602 mmHg 92%
    09:00 -1°C° 0.1 mm 2 mps 603 mmHg 93%
    10:00 -1°C° 0.2 mm 2 mps 602 mmHg 94%
    11:00 -1°C° 0.2 mm 2 mps 602 mmHg 95%
    12:00 +1°C° 0.2 mm 2 mps 602 mmHg 96%
    13:00 -1°C° 0.5 mm 2 mps 602 mmHg 96%
    14:00 -1°C° 0.5 mm 3 mps 601 mmHg 97%
    15:00 -1°C° 0.5 mm 3 mps 601 mmHg 97%
    16:00 -1°C° 0.2 mm 3 mps 601 mmHg 97%
    17:00 -2°C° 0.2 mm 3 mps 601 mmHg 96%
    18:00 -2°C° 0.2 mm 3 mps 601 mmHg 96%
    19:00 -2°C° 0.1 mm 3 mps 601 mmHg 95%
    20:00 -2°C° 0.1 mm 3 mps 601 mmHg 95%
    21:00 -2°C° 0.1 mm 3 mps 601 mmHg 95%
    22:00 -2°C° 0.1 mm 3 mps 601 mmHg 95%
    23:00 -2°C° 0.1 mm 3 mps 600 mmHg 95%
    Show more